Retour au catalogue

BREEZE-M DEB

TANK

ActifHEO
NORAD 32480·DEBRIS·🇷🇺 Russia

Lancé Jan 28, 2008 depuis Baikonur Cosmodrome

Loading…

Prochains Passages (prochaines 24 heures)

TLE

FraisSource: Space-Track

Époque: Sep 14, 2026, 14:32 UTC

1 32480U 08003C   26257.60621157  .00000013  00000-0  14800-2 0  9997
2 32480  45.0048 107.8999 7078791  87.8178 344.5861  2.30100027156470

Suivez BREEZE-M DEB en temps réel avec AllMySat

Download on the App Store